Location: Drignac
(45.1667°N, 2.0333°E)
Time: 03:51:58
(UTC+00:00)

STARLINK-1066 - Pass Details

Date: 29 March 2020
Orbit: 548 x 551 km, 53.0° (Epoch: 06 June)

Event Time Altitude Azimuth Distance (km) Brightness Sun altitude
Rises 19:26:09 0° 295° (WNW) 2,702 9.2 -12.8°
Reaches altitude 10° 19:28:38 10° 282° (WNW) 1,807 7.7 -13.2°
Maximum altitude 19:32:02 25° 227° (SW) 1,108 5.4 -13.8°
Drops below altitude 10° 19:35:25 10° 170° (S) 1,800 5.9 -14.3°
Enters shadow 19:35:50 - 167° (SSE) 1,938 6.1 -14.4°
